Torna al catalogo

KOWSAR

AttivoScienzaSSO
NORAD 61769·PAYLOAD·🇮🇷 Iran
Questo nome del satellite non è ancora stato confermato da fonti ufficiali.

Lanciato Nov 4, 2024 da Vostochny Cosmodrome

Loading…

Prossimi Passaggi (prossime 24 ore)

TLE

AggiornatoSource: Space-Track

Epoca: Sep 14, 2026, 14:39 UTC

1 61769U 24199AL  26257.61044323  .00035223  00000-0  44056-3 0  9996
2 61769  97.2757 135.5060 0002201 346.0027  14.1168 15.59739451148334

Traccia KOWSAR in tempo reale con AllMySat

Download on the App Store